• Join FlightAware (Why Join?)
  • Login
  • US Flag 
10:01AM EDT


 

Airport Tracker/Info


-or-


 

Live Flight TrackerFlight Track Log ✈ N244A ✈ 11-Jul-2013 ✈ KRMN - KSYR

Flight Track Log - Related Links

Times and Time Zones

All times are in EDT time to prevent confusion due to time zone crossing. See the N244A flight status page for this flight to view local times or setup timezone preferences in your user account.

Time Position Orientation Groundspeed Altitude Reporting Facility
EDT Latitude Longitude Course Direction KTS MPH feet Rate Location/Type
12:44PM 38.4000 -77.5167 134° Southeast 229 264 2,100  Level Potomac TRACON
12:45PM 38.3500 -77.4500 134° Southeast 266 306 4,200 1,740 Climbing Potomac TRACON
12:46PM 38.2833 -77.4000 150° Southeast 286 329 5,700 900 Climbing Potomac TRACON
12:47PM 38.3000 -77.4833 284° West 280 322 6,000 180 Climbing Potomac TRACON
12:48PM 38.3500 -77.5333 322° Northwest 260 299 6,100  Climbing Potomac TRACON
12:49PM 38.4167 -77.6000 322° Northwest 270 311 6,000 -60 Descending Potomac TRACON
12:50PM 38.4667 -77.6500 322° Northwest 274 315 6,000  Level Potomac TRACON
12:51PM 38.5333 -77.7000 330° Northwest 277 319 6,000 -60 Level Potomac TRACON
12:52PM 38.6167 -77.7167 351° North 279 321 5,900 -60 Descending Potomac TRACON
12:53PM 38.6833 -77.7000 11° North 280 322 5,900  Level Potomac TRACON
12:54PM 38.7667 -77.7000 360° North 282 325 5,900 240 Level Potomac TRACON
12:55PM 38.8500 -77.7000 360° North 275 316 6,500 660 Climbing Potomac TRACON
12:56PM 38.9333 -77.7000 360° North 280 322 7,300 1,380 Climbing Potomac TRACON
12:57PM 39.0053 -77.7019 359° North 295 339 9,300 1,980 Climbing Washington Center
12:58PM 39.0831 -77.6694 18° North 324 373 11,200 1,740 Climbing Washington Center
12:59PM 39.1711 -77.6344 17° North 349 402 12,900 1,800 Climbing Washington Center
01:00PM 39.2739 -77.5969 16° North 369 425 14,900 2,100 Climbing Washington Center
01:01PM 39.3789 -77.5542 17° North 385 443 17,100 2,460 Climbing Washington Center
01:03PM 39.5869 -77.4792 16° North 387 445 22,000 2,220 Climbing New York Center
01:04PM 39.6992 -77.4519 11° North 393 452 23,600 1,380 Climbing New York Center
01:05PM 39.8119 -77.4492 North 399 459 24,800 1,200 Climbing New York Center
01:06PM 39.9250 -77.4033 17° North 410 472 26,100 1,260 Climbing New York Center
01:07PM 40.0392 -77.3381 24° Northeast 427 491 27,400 1,200 Climbing New York Center
01:08PM 40.1297 -77.2842 24° Northeast 432 497 28,500 780 Climbing New York Center
01:09PM 40.2564 -77.2144 23° Northeast 438 504 29,000 240 Climbing New York Center
01:10PM 40.3831 -77.1472 22° Northeast 463 533 29,000  Level New York Center
01:11PM 40.5144 -77.0719 24° Northeast 488 562 29,000  Level New York Center
01:12PM 40.6497 -76.9967 23° Northeast 504 580 29,000  Level New York Center
01:13PM 40.7869 -76.9217 22° Northeast 515 593 29,000  Level New York Center
01:14PM 40.9200 -76.8483 23° Northeast 520 598 29,000 -300 Level New York Center
01:15PM 41.0572 -76.7697 23° Northeast 520 598 28,500 -660 Descending New York Center
01:16PM 41.1944 -76.6936 23° Northeast 527 606 27,700 -1,140 Descending New York Center
01:17PM 41.3381 -76.6125 23° Northeast 533 613 26,300 -1,680 Descending New York Center
01:18PM 41.4772 -76.5358 22° Northeast 539 620 24,400 -1,860 Descending New York Center
01:20PM 41.7686 -76.4081 18° North 512 589 20,800 -1,920 Descending New York Center
01:21PM 41.9028 -76.3944 North 497 572 18,700 -2,100 Descending New York Center
01:22PM 42.0158 -76.3789 North 471 542 16,700 -2,100 Descending New York Center
01:23PM 42.1564 -76.3572 North 466 536 14,500 -2,160 Descending New York Center
01:24PM 42.2758 -76.3394 North 444 511 12,400 -1,740 Descending New York Center
01:25PM 42.4006 -76.3233 North 420 483 11,000 -720 Descending Boston Center
01:26PM 42.5056 -76.3044 North 373 429 11,000  Level Boston Center
01:27PM 42.5861 -76.2617 21° North 293 337 11,000 -120 Level Boston Center
01:28PM 42.6606 -76.2181 23° Northeast 293 337 10,800 -780 Descending Boston Center
01:29PM 42.7328 -76.1803 21° North 301 346 9,600 -1,740 Descending Boston Center
01:30PM 42.8219 -76.1317 22° Northeast 297 342 7,300 -2,220 Descending Boston Center
01:31PM 42.8856 -76.0986 21° North 290 334 5,200 -1,740 Descending Boston Center
01:32PM 42.9617 -76.0692 16° North 250 288 4,000 -720 Descending Boston Center
01:33PM 43.0250 -76.0389 19° North 247 284 3,800 -660 Descending Boston Center
01:34PM 43.0886 -76.0114 18° North 199 229 2,700 -1,200 Descending Boston Center
01:35PM 43.1097 -76.0636 299° West 136 157 1,300 -1,380 Descending Boston Center